Norwood, MA

12:39 AM EDT on May 27, 2018 (GMT -0400)
Norwood Memorial

Weather History for KOWD - May, 2014

Change the Weather History Date:

Sunday, May 18, 2014

  Actual Average Record
Temperature  
Mean Temperature 55 °F -  
Max Temperature 69 °F 65 °F 96 °F (2017)
Min Temperature 41 °F 43 °F 26 °F (2003)
Degree Days  
Heating Degree Days 10    
Growing Degree Days 5 (Base 50)    
Moisture  
Dew Point 43 °F    
Average Humidity 69    
Maximum Humidity 100    
Minimum Humidity 38    
Precipitation  
Precipitation 0.00 in - - ()
Sea Level Pressure  
Sea Level Pressure 30.06 in    
Wind  
Wind Speed 2 mph (North)    
Max Wind Speed 8 mph    
Max Gust Speed 16 mph    
Visibility 8 miles    
Events      
Averages and records for this station are not official NWS values.
T = Trace of Precipitation, MM = Missing Value Source: NWS Daily Summary

Daily Weather History Graph

Daily Weather History Graph

Search for Another Location

Airport or City:

Astronomy

May. 18, 2014 Rise Set
Actual Time 5:20 AM EDT 8:01 PM EDT
Civil Twilight 4:48 AM EDT 8:34 PM EDT
Nautical Twilight 4:07 AM EDT 9:15 PM EDT
Astronomical Twilight 3:21 AM EDT 10:01 PM EDT
Moon 11:46 PM EDT (5/18) 9:06 AM EDT (5/18)
Length of Visible Light 15h 45m
Length of Day
14h 41m
Waning Gibbous, 81% of the Moon is Illuminated
May 18
Waning Gibbous
May 21
Last Quarter
May 28
New
Jun 5
First Quarter
Jun 13
Full

Hourly Weather History & Observations

Time (EDT) Temp. Dew Point Humidity Pressure Visibility Wind Dir Wind Speed Gust Speed Precip Events Conditions
12:53 AM 48.0 °F 42.1 °F 80% 30.06 in 10.0 mi Calm Calm - N/A   Clear
1:53 AM 46.0 °F 42.1 °F 86% 30.06 in 10.0 mi Calm Calm - N/A   Clear
2:53 AM 44.1 °F 41.0 °F 89% 30.06 in 10.0 mi Calm Calm - N/A   Clear
3:53 AM 44.1 °F 43.0 °F 96% 30.08 in 9.0 mi Calm Calm - N/A   Clear
4:33 AM 42.1 °F 41.0 °F 96% 30.08 in 1.5 mi Calm Calm - N/A   Partly Cloudy
4:36 AM 42.1 °F 41.0 °F 96% 30.08 in 0.8 mi Calm Calm - N/A   Mist
4:47 AM 41.0 °F 41.0 °F 100% 30.08 in 1.5 mi Calm Calm - N/A   Partly Cloudy
4:53 AM 41.0 °F 39.9 °F 96% 30.08 in 6.0 mi Calm Calm - N/A   Partly Cloudy
5:20 AM 41.0 °F 41.0 °F 100% 30.09 in 1.8 mi Calm Calm - N/A   Clear
5:30 AM 43.0 °F 42.1 °F 97% 30.09 in 4.0 mi Calm Calm - N/A   Clear
5:53 AM 44.1 °F 42.1 °F 93% 30.09 in 10.0 mi Calm Calm - N/A   Clear
6:53 AM 51.1 °F 45.0 °F 80% 30.10 in 10.0 mi Calm Calm - N/A   Clear
7:53 AM 55.0 °F 42.1 °F 62% 30.11 in 10.0 mi NNW 6.9 mph - N/A   Clear
8:53 AM 57.0 °F 44.1 °F 62% 30.10 in 10.0 mi North 8.1 mph - N/A   Mostly Cloudy
9:24 AM 59.0 °F 45.0 °F 60% 30.10 in 10.0 mi Variable 4.6 mph - N/A   Scattered Clouds
9:53 AM 62.1 °F 46.0 °F 56% 30.10 in 10.0 mi NNW 5.8 mph - N/A   Partly Cloudy
10:53 AM 64.0 °F 45.0 °F 50% 30.09 in 10.0 mi Variable 5.8 mph - N/A   Partly Cloudy
11:53 AM 66.0 °F 44.1 °F 45% 30.07 in 10.0 mi Variable 3.5 mph - N/A   Scattered Clouds
12:53 PM 69.1 °F 43.0 °F 39% 30.06 in 10.0 mi WNW 5.8 mph - N/A   Mostly Cloudy
1:53 PM 64.9 °F 42.1 °F 43% 30.04 in 10.0 mi NNE 8.1 mph - N/A   Overcast
2:53 PM 64.9 °F 41.0 °F 42% 30.02 in 10.0 mi Variable 3.5 mph 16.1 mph N/A   Overcast
3:53 PM 64.9 °F 44.1 °F 47% 30.01 in 10.0 mi ENE 4.6 mph - N/A   Overcast
4:53 PM 66.0 °F 39.9 °F 38% 30.01 in 10.0 mi Calm Calm - N/A   Mostly Cloudy
5:53 PM 66.0 °F 42.1 °F 42% 30.01 in 10.0 mi ENE 5.8 mph - N/A   Overcast
6:53 PM 62.1 °F 45.0 °F 53% 30.01 in 10.0 mi SE 3.5 mph - N/A   Mostly Cloudy
7:53 PM 59.0 °F 46.0 °F 62% 30.02 in 10.0 mi Calm Calm - N/A   Mostly Cloudy
8:53 PM 57.0 °F 46.9 °F 69% 30.03 in 10.0 mi Calm Calm - N/A   Overcast
9:53 PM 55.0 °F 48.0 °F 77% 30.04 in 10.0 mi Calm Calm - N/A   Overcast
10:53 PM 55.0 °F 45.0 °F 69% 30.05 in 10.0 mi NW 5.8 mph - 0.00 in   Overcast
11:53 PM 55.0 °F 35.1 °F 47% 30.06 in 10.0 mi WNW 8.1 mph - N/A   Clear